Flag for Ukraine Weather past 2 weeks in L'viv, Ukraine

Now
57 °F

Fog.


Feels Like: 57 °F
Forecast: 51 / 58 °F
Wind: 3 mph from South

Location: L'Viv Airport

Current Time: Sep 22, 2014 at 12:03:06 AM

Latest Report: Sep 21, 2014 at 11:30 PM


Visibility: 0 mi

Pressure: 29.80 "Hg

Humidity: 100%

Dew point: 57 °F

Location of L'vivLocation

Historic Weather in L'viv — Graph

°F

L'viv temperature yesterday

Maximum temperature yesterday: 68 °F (at 3:30 PM)
Minimum temperature yesterday: 57 °F (at 12:00 AM)
Average temperature yesterday: 60 °F

Past Weeks' High & Low Weather Summary

 TemperatureHumidityPressure
High79 °F (Sep 12, 3:30 PM)100% (Sep 7, 5:00 AM)30.24 "Hg (Sep 7, 5:00 AM)
Low46 °F (Sep 7, 6:30 AM)29% (Sep 7, 5:30 PM)29.80 "Hg (Sep 21, 9:30 PM)
Average62 °F68%30.07 "Hg
* Reported Sep 6 11:00 PM — Sep 21 11:00 PM, L'viv, Weather by CustomWeather, © 2014

Note: Actual official high and low records may vary slightly from our data, if they occured in-between our weather recording intervals... More about our weather records

Advertising

L'viv weather history for previous 24 hours

 ConditionsComfort  
Time TempWeatherWind HumidityBarometerVisibility
11:00 PM
Sep 21
57 °FFog.3 mph100%29.80 "Hg0 mi
10:30 PM57 °FDense fog.3 mph100%29.80 "Hg1 mi
10:00 PM57 °FFog.3 mph100%29.80 "Hg1 mi
9:30 PM59 °FFog.3 mph94%29.80 "Hg1 mi
9:00 PM59 °FFog.3 mph100%29.83 "Hg2 mi
8:30 PM59 °FSprinkles. Fog.1 mph100%29.83 "Hg3 mi
8:00 PM61 °FSprinkles. Fog.3 mph94%29.83 "Hg3 mi
7:30 PM61 °FSprinkles. Broken clouds.3 mph94%29.83 "Hg4 mi
7:00 PM61 °FSprinkles. Broken clouds.3 mph94%29.83 "Hg4 mi
6:30 PM63 °FSprinkles. Broken clouds.3 mph88%29.83 "Hg4 mi
6:00 PM63 °FSprinkles. Broken clouds.3 mph83%29.83 "HgN/A
5:30 PM64 °FSprinkles. Broken clouds.3 mph78%29.83 "HgN/A
5:00 PM64 °FBroken clouds.1 mph73%29.83 "HgN/A
4:30 PM64 °FBroken clouds.1 mph73%29.83 "HgN/A
4:00 PM66 °FPartly sunny.No wind64%29.83 "HgN/A
3:30 PM68 °FPartly sunny.1 mph64%29.83 "HgN/A
3:00 PM66 °FPartly sunny.3 mph68%29.86 "HgN/A
2:30 PM64 °FPartly sunny.1 mph73%29.86 "HgN/A
2:00 PM63 °FPartly sunny.1 mph77%29.86 "HgN/A
1:30 PM63 °FBroken clouds.No wind77%29.89 "HgN/A
1:00 PM61 °FBroken clouds.3 mph83%29.89 "HgN/A
12:30 PM61 °FBroken clouds.1 mph83%29.89 "HgN/A
12:00 PM61 °FBroken clouds.3 mph88%29.89 "HgN/A
11:30 AM59 °FLow clouds.3 mph94%29.89 "Hg6 mi
11:00 AM59 °FLow clouds.1 mph94%29.89 "Hg5 mi
10:30 AM57 °FLow clouds.No wind100%29.89 "Hg4 mi
10:00 AM57 °FLow clouds.3 mph100%29.89 "Hg4 mi
9:30 AM57 °FLow clouds.3 mph100%29.89 "Hg4 mi
9:00 AM57 °FFog.3 mph100%29.89 "Hg3 mi
8:30 AM57 °FFog.3 mph100%29.89 "Hg3 mi
8:00 AM57 °FDrizzle. Fog.3 mph100%29.89 "Hg1 mi
7:30 AM57 °FFog.3 mph100%29.89 "Hg2 mi
7:00 AM57 °FFog.1 mph100%29.89 "Hg2 mi
6:56 AM57 °FFog.1 mph100%29.89 "Hg2 mi
6:30 AM57 °FFog.1 mph100%29.89 "Hg1 mi
5:30 AM57 °FFog.1 mph100%29.89 "Hg2 mi
5:00 AM57 °FFog.1 mph100%29.92 "Hg2 mi
4:30 AM57 °FFog.No wind100%29.92 "Hg1 mi
4:00 AM57 °FFog.1 mph100%29.92 "Hg1 mi
3:30 AM57 °FFog.1 mph100%29.92 "Hg2 mi
3:00 AM57 °FFog.No wind100%29.92 "Hg2 mi
2:30 AM57 °FFog.No wind100%29.92 "Hg1 mi
2:00 AM57 °FFog.1 mph100%29.92 "Hg1 mi
1:30 AM57 °FFog.1 mph100%29.92 "Hg1 mi
1:00 AM57 °FDrizzle. Fog.1 mph100%29.92 "Hg1 mi
12:30 AM57 °FDrizzle. Fog.No wind100%29.92 "Hg1 mi
12:00 AM57 °FSprinkles. Fog.No wind100%29.95 "Hg1 mi
Weather by CustomWeather, © 2014

See weather overviewHow to use our weather pages